Location: Street
(51.1247°N, 2.7429°W)
Time: 09:14:40
(UTC+01:00)

UWE-3 - Pass Details

Date: 04 April 2023
Orbit: 576 x 669 km, 97.7° (Epoch: 02 June)

Event Time Altitude Azimuth Distance (km) Brightness Sun altitude
Rises 05:04:04 0° 8° (N) 2,980 ? -15.1°
Reaches altitude 10° 05:06:26 10° 360° (N) 2,050 ? -14.8°
Maximum altitude 05:10:31 37° 294° (WNW) 996 ? -14.2°
Enters shadow 05:12:39 22° 243° (WSW) 1,355 ? -13.9°
